BAW845 EPWA-EGLL

Flight info

Callsign BAW845
Flight time 2h 6m
Altitude 36000
Route LOLSI DCT DIBLO DCT INDIG DCT SUBIX DCT HLZ DCT ABNED L980 LOGAN
Aircraft A21N/M-SDE2E3FGHIRWXY/LB1

Departure

Time 2026-04-30 19:14
Airport Warsaw Chopin Airport (EPWA)

Arrival

Time 2026-04-30 21:20
Airport London Heathrow Airport (EGLL)
Time Latitude Longitude Altitude Speed Heading
2026-04-30 18:28 52.17479 20.96963 361 ft 0 kts 241°
2026-04-30 18:58 52.17487 20.96995 360 ft 4 kts 264°
2026-04-30 18:58 52.17485 20.97038 360 ft 4 kts 281°
2026-04-30 18:58 52.17470 20.97050 360 ft 4 kts 15°
2026-04-30 18:59 52.17521 20.97037 361 ft 4 kts 338°
2026-04-30 19:00 52.17530 20.97029 357 ft 0 kts 333°
2026-04-30 19:06 52.17558 20.97005 357 ft 5 kts 330°
2026-04-30 19:06 52.17593 20.96971 361 ft 7 kts 329°
2026-04-30 19:06 52.17586 20.96851 365 ft 8 kts 238°
2026-04-30 19:07 52.17511 20.96655 361 ft 12 kts 237°
2026-04-30 19:07 52.17457 20.96546 362 ft 12 kts 239°
2026-04-30 19:08 52.17363 20.96421 359 ft 11 kts 151°
2026-04-30 19:08 52.17210 20.96556 357 ft 14 kts 152°
2026-04-30 19:08 52.17116 20.96636 362 ft 16 kts 152°
2026-04-30 19:09 52.16911 20.96820 363 ft 17 kts 152°
2026-04-30 19:09 52.16813 20.96905 359 ft 16 kts 152°
2026-04-30 19:09 52.16724 20.96983 357 ft 13 kts 152°
2026-04-30 19:10 52.16616 20.97226 361 ft 15 kts 115°
2026-04-30 19:10 52.16529 20.97530 362 ft 14 kts 115°
2026-04-30 19:11 52.16490 20.97673 361 ft 14 kts 114°
2026-04-30 19:11 52.16401 20.97803 359 ft 5 kts 204°
2026-04-30 19:11 52.16360 20.97771 359 ft 8 kts 206°
2026-04-30 19:12 52.16315 20.97733 361 ft 6 kts 215°
2026-04-30 19:12 52.16305 20.97679 362 ft 5 kts 278°
2026-04-30 19:12 52.16306 20.97672 361 ft 0 kts 284°
2026-04-30 19:13 52.16315 20.97625 364 ft 25 kts 290°
2026-04-30 19:13 52.16918 20.95467 383 ft 169 kts 294°
2026-04-30 19:13 52.17434 20.93656 948 ft 182 kts 295°
2026-04-30 19:14 52.18012 20.91749 1785 ft 192 kts 298°
2026-04-30 19:14 52.18524 20.89738 2770 ft 193 kts 284°
2026-04-30 19:14 52.18510 20.87488 3600 ft 208 kts 263°
2026-04-30 19:14 52.18021 20.85181 4315 ft 227 kts 249°
2026-04-30 19:15 52.17287 20.82700 4735 ft 256 kts 249°
2026-04-30 19:15 52.16785 20.76824 5852 ft 268 kts 275°
2026-04-30 19:15 52.16829 20.73791 5991 ft 268 kts 276°
2026-04-30 19:16 52.16877 20.70756 6295 ft 269 kts 276°
2026-04-30 19:16 52.16924 20.67680 7218 ft 273 kts 276°
2026-04-30 19:16 52.17014 20.61430 9068 ft 283 kts 276°
2026-04-30 19:17 52.17057 20.58191 9974 ft 289 kts 276°
2026-04-30 19:17 52.17147 20.51331 11183 ft 323 kts 276°
2026-04-30 19:17 52.17191 20.47591 11827 ft 335 kts 276°
2026-04-30 19:18 52.17260 20.41198 13258 ft 344 kts 276°
2026-04-30 19:18 52.17317 20.35930 14384 ft 351 kts 277°
2026-04-30 19:18 52.17357 20.31981 15139 ft 356 kts 277°
2026-04-30 19:19 52.17396 20.27925 15881 ft 361 kts 277°
2026-04-30 19:19 52.17436 20.23806 16627 ft 366 kts 277°
2026-04-30 19:19 52.17514 20.15399 18115 ft 376 kts 277°
2026-04-30 19:20 52.17550 20.11113 18822 ft 380 kts 277°
2026-04-30 19:20 52.17587 20.06775 19424 ft 385 kts 277°
2026-04-30 19:20 52.17653 19.97944 20671 ft 394 kts 278°
2026-04-30 19:21 52.17685 19.93457 21271 ft 399 kts 278°
2026-04-30 19:21 52.17513 19.84340 22445 ft 416 kts 270°
2026-04-30 19:22 52.16663 19.74888 23613 ft 427 kts 269°
2026-04-30 19:22 52.15328 19.60315 25110 ft 440 kts 269°
2026-04-30 19:23 52.13959 19.45312 26497 ft 453 kts 269°
2026-04-30 19:24 52.13019 19.35140 27343 ft 462 kts 269°
2026-04-30 19:24 52.12534 19.29951 27759 ft 466 kts 269°
2026-04-30 19:24 52.11548 19.19434 28580 ft 474 kts 269°
2026-04-30 19:25 52.10022 19.03359 29745 ft 485 kts 269°
2026-04-30 19:26 52.08971 18.92443 30481 ft 491 kts 269°
2026-04-30 19:26 52.07898 18.81426 31165 ft 496 kts 269°
2026-04-30 19:26 52.07355 18.75881 31498 ft 498 kts 268°
2026-04-30 19:27 52.06255 18.64725 32179 ft 502 kts 268°
2026-04-30 19:27 52.05138 18.53530 33038 ft 501 kts 268°
2026-04-30 19:28 52.04583 18.48026 33449 ft 500 kts 268°
2026-04-30 19:28 52.03454 18.36911 34301 ft 496 kts 268°
2026-04-30 19:29 52.02331 18.25929 35071 ft 491 kts 268°
2026-04-30 19:29 52.01764 18.20471 35428 ft 489 kts 268°
2026-04-30 19:30 52.00105 18.04243 36390 ft 483 kts 269°
2026-04-30 19:30 52.00342 17.93708 36450 ft 459 kts 290°
2026-04-30 19:31 52.01668 17.83688 36412 ft 457 kts 290°
2026-04-30 19:31 52.03625 17.68545 36425 ft 457 kts 290°
2026-04-30 19:32 52.04676 17.60131 36423 ft 457 kts 289°
2026-04-30 19:32 52.06119 17.48285 36425 ft 457 kts 289°
2026-04-30 19:33 52.07337 17.38212 36399 ft 456 kts 289°
2026-04-30 19:33 52.08564 17.28094 36420 ft 456 kts 289°
2026-04-30 19:34 52.09794 17.17973 36423 ft 456 kts 289°
2026-04-30 19:35 52.11616 17.02771 36425 ft 456 kts 289°
2026-04-30 19:35 52.12811 16.92695 36398 ft 456 kts 289°
2026-04-30 19:36 52.13999 16.82554 36421 ft 456 kts 289°
2026-04-30 19:36 52.15770 16.67335 36430 ft 456 kts 288°
2026-04-30 19:37 52.16935 16.57172 36433 ft 456 kts 288°
2026-04-30 19:37 52.18084 16.47077 36432 ft 456 kts 288°
2026-04-30 19:38 52.19238 16.36923 36425 ft 455 kts 288°
2026-04-30 19:38 52.20384 16.26773 36425 ft 456 kts 288°
2026-04-30 19:39 52.21516 16.16606 36435 ft 455 kts 288°
2026-04-30 19:39 52.22634 16.06509 36435 ft 456 kts 288°
2026-04-30 19:40 52.23746 15.96332 36411 ft 455 kts 287°
2026-04-30 19:40 52.24843 15.86209 36431 ft 453 kts 287°
2026-04-30 19:41 52.25751 15.77790 36437 ft 453 kts 287°
2026-04-30 19:41 52.26841 15.67666 36437 ft 453 kts 287°
2026-04-30 19:42 52.28115 15.55896 36440 ft 453 kts 287°
2026-04-30 19:42 52.29006 15.47467 36411 ft 452 kts 286°
2026-04-30 19:43 52.30055 15.37385 36441 ft 450 kts 286°
2026-04-30 19:44 52.31613 15.22259 36448 ft 450 kts 286°
2026-04-30 19:44 52.32648 15.12179 36450 ft 449 kts 286°
2026-04-30 19:45 52.33665 15.02096 36453 ft 450 kts 286°
2026-04-30 19:45 52.34662 14.92106 36444 ft 447 kts 285°
2026-04-30 19:46 52.35665 14.82061 36446 ft 448 kts 285°
2026-04-30 19:46 52.36652 14.72005 36444 ft 448 kts 285°
2026-04-30 19:47 52.37626 14.61948 36441 ft 448 kts 285°
2026-04-30 19:47 52.38068 14.51768 36449 ft 455 kts 277°
2026-04-30 19:48 52.38147 14.41422 36444 ft 455 kts 277°
2026-04-30 19:48 52.38244 14.31078 36446 ft 454 kts 277°
2026-04-30 19:49 52.38343 14.20714 36440 ft 456 kts 277°
2026-04-30 19:49 52.38459 14.05143 36445 ft 456 kts 276°
2026-04-30 19:50 52.38514 13.94853 36435 ft 454 kts 276°
2026-04-30 19:50 52.38570 13.84530 36453 ft 454 kts 276°
2026-04-30 19:51 52.38620 13.74202 36464 ft 454 kts 276°
2026-04-30 19:51 52.38665 13.63878 36466 ft 454 kts 276°
2026-04-30 19:52 52.38706 13.53541 36464 ft 454 kts 276°
2026-04-30 19:52 52.38729 13.43312 36453 ft 451 kts 275°
2026-04-30 19:53 52.38742 13.33053 36463 ft 451 kts 275°
2026-04-30 19:53 52.38750 13.22790 36459 ft 451 kts 275°
2026-04-30 19:54 52.38753 13.12526 36454 ft 451 kts 275°
2026-04-30 19:54 52.38745 13.02332 36447 ft 451 kts 275°
2026-04-30 19:55 52.38719 12.92190 36444 ft 449 kts 274°
2026-04-30 19:55 52.38688 12.81900 36453 ft 449 kts 274°
2026-04-30 19:56 52.38664 12.71685 36458 ft 449 kts 274°
2026-04-30 19:56 52.38620 12.61457 36457 ft 449 kts 274°
2026-04-30 19:57 52.38566 12.51285 36458 ft 449 kts 274°
2026-04-30 19:57 52.38494 12.41129 36447 ft 447 kts 274°
2026-04-30 19:58 52.38429 12.30923 36449 ft 447 kts 274°
2026-04-30 19:58 52.38354 12.20760 36461 ft 447 kts 273°
2026-04-30 19:59 52.38264 12.10584 36460 ft 448 kts 273°
2026-04-30 20:00 52.38111 11.95352 36439 ft 447 kts 272°
2026-04-30 20:00 52.37998 11.85211 36464 ft 445 kts 272°
2026-04-30 20:01 52.37807 11.70008 36465 ft 445 kts 272°
2026-04-30 20:01 52.37674 11.59943 36463 ft 445 kts 272°
2026-04-30 20:02 52.37461 11.44750 36452 ft 444 kts 272°
2026-04-30 20:03 52.37227 11.29625 36466 ft 443 kts 272°
2026-04-30 20:03 52.37061 11.19611 36467 ft 443 kts 271°
2026-04-30 20:04 52.36886 11.09529 36469 ft 443 kts 271°
2026-04-30 20:05 52.36607 10.94412 36453 ft 443 kts 271°
2026-04-30 20:05 52.36301 10.79360 36466 ft 441 kts 270°
2026-04-30 20:06 52.35959 10.69396 36466 ft 442 kts 269°
2026-04-30 20:06 52.35600 10.59367 36465 ft 442 kts 269°
2026-04-30 20:07 52.35233 10.49344 36465 ft 442 kts 269°
2026-04-30 20:08 52.34669 10.34334 36463 ft 440 kts 269°
2026-04-30 20:08 52.34279 10.24412 36465 ft 440 kts 269°
2026-04-30 20:09 52.33881 10.14424 36469 ft 440 kts 269°
2026-04-30 20:09 52.33266 9.99426 36470 ft 442 kts 269°
2026-04-30 20:10 52.32635 9.84401 36464 ft 441 kts 268°
2026-04-30 20:11 52.32274 9.75881 36466 ft 441 kts 268°
2026-04-30 20:11 52.31840 9.65885 36467 ft 441 kts 268°
2026-04-30 20:12 52.31162 9.50890 36465 ft 441 kts 268°
2026-04-30 20:13 52.30700 9.40896 36468 ft 441 kts 268°
2026-04-30 20:13 52.30234 9.30976 36451 ft 441 kts 268°
2026-04-30 20:14 52.29762 9.20989 36440 ft 441 kts 268°
2026-04-30 20:14 52.29279 9.11003 36436 ft 441 kts 268°
2026-04-30 20:15 52.28783 9.01016 36437 ft 441 kts 267°
2026-04-30 20:15 52.28275 8.91120 36427 ft 440 kts 267°
2026-04-30 20:16 52.27765 8.81175 36437 ft 439 kts 267°
2026-04-30 20:16 52.27251 8.71238 36437 ft 439 kts 267°
2026-04-30 20:17 52.26718 8.61301 36438 ft 439 kts 267°
2026-04-30 20:17 52.26186 8.51363 36433 ft 439 kts 267°
2026-04-30 20:18 52.25648 8.41500 36427 ft 439 kts 266°
2026-04-30 20:18 52.25101 8.31569 36430 ft 439 kts 266°
2026-04-30 20:19 52.24533 8.21641 36432 ft 439 kts 266°
2026-04-30 20:19 52.23971 8.11713 36444 ft 440 kts 266°
2026-04-30 20:20 52.23415 8.01778 36439 ft 440 kts 266°
2026-04-30 20:20 52.22826 7.91906 36432 ft 441 kts 265°
2026-04-30 20:21 52.22207 7.81962 36434 ft 441 kts 265°
2026-04-30 20:21 52.21596 7.72020 36437 ft 440 kts 265°
2026-04-30 20:22 52.20988 7.62088 36438 ft 440 kts 265°
2026-04-30 20:22 52.20370 7.52218 36436 ft 441 kts 265°
2026-04-30 20:23 52.19737 7.42289 36417 ft 441 kts 265°
2026-04-30 20:23 52.19104 7.32359 36413 ft 441 kts 265°
2026-04-30 20:24 52.18460 7.22425 36418 ft 441 kts 265°
2026-04-30 20:24 52.17815 7.12564 36416 ft 440 kts 265°
2026-04-30 20:25 52.16829 6.97679 36410 ft 441 kts 264°
2026-04-30 20:26 52.15809 6.82790 36403 ft 442 kts 264°
2026-04-30 20:26 52.14800 6.67964 36392 ft 441 kts 264°
2026-04-30 20:27 52.13404 6.48121 36381 ft 441 kts 264°
2026-04-30 20:28 52.11976 6.28348 36378 ft 442 kts 263°
2026-04-30 20:30 52.10113 6.03383 36380 ft 445 kts 263°
2026-04-30 20:31 52.07819 5.73528 36380 ft 445 kts 262°
2026-04-30 20:32 52.05829 5.48563 36343 ft 446 kts 262°
2026-04-30 20:33 52.04637 5.33697 36347 ft 444 kts 262°
2026-04-30 20:34 52.03414 5.18822 36352 ft 443 kts 261°
2026-04-30 20:35 52.02171 5.03955 36346 ft 442 kts 262°
2026-04-30 20:35 52.00927 4.89172 36345 ft 443 kts 261°
2026-04-30 20:36 52.00077 4.79303 36342 ft 442 kts 260°
2026-04-30 20:37 51.98788 4.64508 36349 ft 441 kts 261°
2026-04-30 20:37 51.97908 4.54638 36337 ft 443 kts 261°
2026-04-30 20:38 51.97036 4.44775 36353 ft 442 kts 260°
2026-04-30 20:38 51.96168 4.35175 36360 ft 442 kts 261°
2026-04-30 20:39 51.94834 4.20403 36340 ft 442 kts 261°
2026-04-30 20:40 51.93475 4.05634 36337 ft 441 kts 260°
2026-04-30 20:40 51.92565 3.95872 36325 ft 441 kts 260°
2026-04-30 20:41 51.91171 3.81164 36301 ft 440 kts 260°
2026-04-30 20:41 51.90241 3.71390 36304 ft 439 kts 259°
2026-04-30 20:42 51.89299 3.61619 36299 ft 439 kts 259°
2026-04-30 20:43 51.87873 3.47035 36296 ft 440 kts 259°
2026-04-30 20:43 51.86914 3.37278 36298 ft 439 kts 259°
2026-04-30 20:44 51.85459 3.22648 36285 ft 439 kts 259°
2026-04-30 20:45 51.83984 3.03094 36285 ft 440 kts 262°
2026-04-30 20:45 51.83345 2.93267 36286 ft 440 kts 262°
2026-04-30 20:46 51.82039 2.73629 36287 ft 439 kts 261°
2026-04-30 20:47 51.81046 2.58981 36278 ft 439 kts 261°
2026-04-30 20:48 51.80025 2.44437 36280 ft 436 kts 261°
2026-04-30 20:48 51.79337 2.34721 35364 ft 438 kts 261°
2026-04-30 20:49 51.78994 2.29882 34692 ft 440 kts 261°
2026-04-30 20:49 51.78643 2.24970 34055 ft 441 kts 261°
2026-04-30 20:49 51.78316 2.20037 33367 ft 442 kts 262°
2026-04-30 20:50 51.77742 2.10151 32053 ft 442 kts 262°
2026-04-30 20:50 51.77445 2.05205 31383 ft 443 kts 261°
2026-04-30 20:50 51.77130 2.00256 30729 ft 443 kts 261°
2026-04-30 20:50 51.76819 1.95303 30013 ft 444 kts 261°
2026-04-30 20:51 51.76518 1.90404 29245 ft 445 kts 261°
2026-04-30 20:51 51.75904 1.80435 27760 ft 451 kts 261°
2026-04-30 20:51 51.75591 1.75374 27115 ft 453 kts 261°
2026-04-30 20:52 51.75278 1.70326 26440 ft 451 kts 262°
2026-04-30 20:52 51.74963 1.65320 25804 ft 447 kts 261°
2026-04-30 20:52 51.74319 1.55389 24369 ft 444 kts 262°
2026-04-30 20:53 51.74030 1.50443 23596 ft 442 kts 262°
2026-04-30 20:53 51.73741 1.45532 22841 ft 437 kts 262°
2026-04-30 20:53 51.73440 1.40750 22138 ft 432 kts 262°
2026-04-30 20:54 51.72819 1.31232 20820 ft 421 kts 261°
2026-04-30 20:54 51.72512 1.26577 20276 ft 414 kts 262°
2026-04-30 20:54 51.72211 1.21998 19695 ft 409 kts 261°
2026-04-30 20:55 51.71607 1.12972 18553 ft 401 kts 261°
2026-04-30 20:55 51.71303 1.08527 17960 ft 397 kts 261°
2026-04-30 20:55 51.71005 1.04120 17386 ft 394 kts 261°
2026-04-30 20:56 51.70411 0.95450 16336 ft 388 kts 261°
2026-04-30 20:56 51.70116 0.91189 15955 ft 377 kts 261°
2026-04-30 20:56 51.69545 0.83052 15265 ft 357 kts 261°
2026-04-30 20:57 51.69267 0.79090 14740 ft 355 kts 261°
2026-04-30 20:57 51.68991 0.75145 14212 ft 353 kts 260°
2026-04-30 20:57 51.68717 0.71250 13870 ft 345 kts 260°
2026-04-30 20:58 51.68189 0.63914 13525 ft 319 kts 260°
2026-04-30 20:58 51.67935 0.60399 13217 ft 313 kts 260°
2026-04-30 20:58 51.67688 0.56936 12799 ft 310 kts 260°
2026-04-30 20:58 51.67439 0.53497 12389 ft 308 kts 259°
2026-04-30 20:59 51.66948 0.46699 11567 ft 303 kts 259°
2026-04-30 20:59 51.66705 0.43378 11348 ft 294 kts 259°
2026-04-30 21:00 51.66246 0.37132 11068 ft 270 kts 259°
2026-04-30 21:00 51.65806 0.31217 10545 ft 265 kts 259°
2026-04-30 21:01 51.65363 0.25335 10318 ft 264 kts 259°
2026-04-30 21:01 51.65140 0.22403 10230 ft 264 kts 259°
2026-04-30 21:01 51.64692 0.16546 10020 ft 263 kts 260°
2026-04-30 21:02 51.64604 0.13597 9886 ft 264 kts 265°
2026-04-30 21:02 51.64590 0.10649 9658 ft 263 kts 266°
2026-04-30 21:02 51.64573 0.07709 9388 ft 261 kts 263°
2026-04-30 21:02 51.64443 0.04807 9084 ft 259 kts 261°
2026-04-30 21:03 51.64279 0.01936 8743 ft 257 kts 261°
2026-04-30 21:03 51.64109 -0.00925 8441 ft 256 kts 261°
2026-04-30 21:03 51.63934 -0.03731 8104 ft 255 kts 261°
2026-04-30 21:03 51.63767 -0.06346 7817 ft 253 kts 261°
2026-04-30 21:04 51.63588 -0.09148 7548 ft 250 kts 261°
2026-04-30 21:04 51.63408 -0.11913 7312 ft 248 kts 261°
2026-04-30 21:04 51.63046 -0.17447 7263 ft 249 kts 261°
2026-04-30 21:05 51.62863 -0.20217 7280 ft 249 kts 261°
2026-04-30 21:05 51.62681 -0.22979 7285 ft 249 kts 261°
2026-04-30 21:05 51.62496 -0.25757 7285 ft 249 kts 261°
2026-04-30 21:05 51.62311 -0.28525 7288 ft 249 kts 261°
2026-04-30 21:06 51.62128 -0.31262 7289 ft 249 kts 261°
2026-04-30 21:06 51.61941 -0.34025 7239 ft 249 kts 261°
2026-04-30 21:06 51.61755 -0.36794 7236 ft 249 kts 261°
2026-04-30 21:06 51.61569 -0.39558 7234 ft 249 kts 261°
2026-04-30 21:07 51.61384 -0.42331 7234 ft 249 kts 261°
2026-04-30 21:07 51.61189 -0.45093 7232 ft 248 kts 257°
2026-04-30 21:07 51.60793 -0.47759 7127 ft 242 kts 251°
2026-04-30 21:07 51.60335 -0.50361 6783 ft 242 kts 251°
2026-04-30 21:08 51.59867 -0.52954 6432 ft 242 kts 251°
2026-04-30 21:08 51.59398 -0.55547 6093 ft 241 kts 251°
2026-04-30 21:08 51.58937 -0.58120 5780 ft 239 kts 251°
2026-04-30 21:08 51.58483 -0.60677 5469 ft 237 kts 251°
2026-04-30 21:09 51.58042 -0.63189 5166 ft 236 kts 251°
2026-04-30 21:09 51.57599 -0.65724 4989 ft 236 kts 251°
2026-04-30 21:09 51.57155 -0.68259 4974 ft 235 kts 251°
2026-04-30 21:09 51.56708 -0.70781 4950 ft 232 kts 251°
2026-04-30 21:10 51.56269 -0.73267 4634 ft 232 kts 250°
2026-04-30 21:10 51.55842 -0.75762 4302 ft 231 kts 250°
2026-04-30 21:10 51.55437 -0.78244 3998 ft 229 kts 250°
2026-04-30 21:10 51.55054 -0.80714 3706 ft 227 kts 250°
2026-04-30 21:11 51.54694 -0.83140 3521 ft 218 kts 250°
2026-04-30 21:11 51.54368 -0.85463 3354 ft 209 kts 250°
2026-04-30 21:11 51.54065 -0.87722 3065 ft 207 kts 251°
2026-04-30 21:11 51.53754 -0.90006 2953 ft 210 kts 247°
2026-04-30 21:12 51.53173 -0.91763 2940 ft 196 kts 216°
2026-04-30 21:12 51.52054 -0.92778 2955 ft 181 kts 186°
2026-04-30 21:12 51.50819 -0.93058 2975 ft 179 kts 180°
2026-04-30 21:12 51.49635 -0.92739 2969 ft 174 kts 148°
2026-04-30 21:13 51.48787 -0.91366 2995 ft 176 kts 127°
2026-04-30 21:13 51.48112 -0.89729 2995 ft 176 kts 124°
2026-04-30 21:13 51.47729 -0.87853 2993 ft 181 kts 103°
2026-04-30 21:13 51.47643 -0.85814 2987 ft 185 kts 97°
2026-04-30 21:14 51.47633 -0.83760 2991 ft 184 kts 96°
2026-04-30 21:14 51.47638 -0.81750 2986 ft 171 kts 96°
2026-04-30 21:14 51.47645 -0.79965 3012 ft 153 kts 97°
2026-04-30 21:14 51.47649 -0.78280 2992 ft 151 kts 97°
2026-04-30 21:15 51.47654 -0.76617 2975 ft 151 kts 97°
2026-04-30 21:15 51.47659 -0.74926 2978 ft 152 kts 97°
2026-04-30 21:15 51.47665 -0.73232 2984 ft 152 kts 97°
2026-04-30 21:15 51.47671 -0.71541 2885 ft 151 kts 97°
2026-04-30 21:16 51.47677 -0.69864 2721 ft 150 kts 97°
2026-04-30 21:16 51.47682 -0.68197 2528 ft 150 kts 97°
2026-04-30 21:16 51.47688 -0.66529 2330 ft 149 kts 97°
2026-04-30 21:16 51.47694 -0.64871 2134 ft 148 kts 96°
2026-04-30 21:17 51.47700 -0.63220 1942 ft 148 kts 97°
2026-04-30 21:17 51.47706 -0.61578 1771 ft 147 kts 97°
2026-04-30 21:17 51.47712 -0.59945 1590 ft 146 kts 96°
2026-04-30 21:17 51.47719 -0.58455 1371 ft 123 kts 95°
2026-04-30 21:18 51.47722 -0.57109 1176 ft 122 kts 94°
2026-04-30 21:18 51.47727 -0.55744 1014 ft 123 kts 92°
2026-04-30 21:18 51.47732 -0.54366 851 ft 124 kts 90°
2026-04-30 21:18 51.47736 -0.52978 686 ft 125 kts 90°
2026-04-30 21:19 51.47740 -0.51592 480 ft 125 kts 89°
2026-04-30 21:19 51.47745 -0.50197 339 ft 124 kts 88°
2026-04-30 21:19 51.47750 -0.48814 164 ft 125 kts 88°
2026-04-30 21:19 51.47752 -0.47445 92 ft 117 kts 88°
2026-04-30 21:20 51.47759 -0.46412 95 ft 64 kts 89°
2026-04-30 21:20 51.47760 -0.45997 91 ft 23 kts 90°
2026-04-30 21:20 51.47760 -0.45731 89 ft 24 kts 90°
2026-04-30 21:20 51.47759 -0.45566 91 ft 12 kts 101°
2026-04-30 21:21 51.47699 -0.45471 93 ft 14 kts 158°
2026-04-30 21:21 51.47651 -0.45458 91 ft 3 kts 182°
2026-04-30 21:21 51.47598 -0.45530 91 ft 8 kts 264°
2026-04-30 21:22 51.47595 -0.45638 95 ft 11 kts 271°
2026-04-30 21:22 51.47595 -0.45992 95 ft 12 kts 270°
2026-04-30 21:23 51.47595 -0.46139 95 ft 14 kts 269°
2026-04-30 21:23 51.47594 -0.46308 92 ft 15 kts 270°
2026-04-30 21:23 51.47593 -0.46682 92 ft 18 kts 268°
2026-04-30 21:24 51.47586 -0.46890 92 ft 20 kts 265°
2026-04-30 21:24 51.47583 -0.47119 92 ft 21 kts 270°
2026-04-30 21:24 51.47582 -0.47364 94 ft 22 kts 269°
2026-04-30 21:24 51.47583 -0.47608 95 ft 21 kts 269°
2026-04-30 21:25 51.47581 -0.48030 95 ft 14 kts 270°
2026-04-30 21:25 51.47580 -0.48184 95 ft 12 kts 270°
2026-04-30 21:25 51.47579 -0.48324 95 ft 13 kts 269°
2026-04-30 21:26 51.47503 -0.48475 92 ft 11 kts 181°
2026-04-30 21:26 51.47422 -0.48475 91 ft 12 kts 180°
2026-04-30 21:27 51.47236 -0.48475 91 ft 13 kts 179°
2026-04-30 21:27 51.47146 -0.48474 91 ft 10 kts 179°
2026-04-30 21:27 51.47075 -0.48472 91 ft 9 kts 179°
2026-04-30 21:28 51.46937 -0.48470 93 ft 8 kts 179°
2026-04-30 21:28 51.46897 -0.48478 92 ft 5 kts 208°
2026-04-30 21:28 51.46877 -0.48593 92 ft 4 kts 269°
2026-04-30 21:29 51.46883 -0.48629 91 ft 4 kts 314°
2026-04-30 21:29 51.46922 -0.48647 93 ft 1 kts 358°
2026-04-30 21:30 51.46925 -0.48647 93 ft 1 kts 358°
2026-04-30 21:31 51.46926 -0.48647 93 ft 0 kts 358°